Miscellaneous Local Product
Issued by NWS North Platte, NE

Home | Current Version | Previous Version | Graphics & Text | Print | Product List | Glossary On
Versions: 1 2 3 4 5 6 7 8 9 10 11 12 13 14 15 16 17 18 19 20 21 22 23 24 25 26 27 28 29 30 31 32 33 34 35 36 37 38 39 40 41 42 43 44 45 46 47 48 49 50
877
AXUS43 KLBF 211110
MISLBF


WESTERN AND NORTH CENTRAL NEBRASKA HOURLY WEATHER ROUNDUP
NATIONAL WEATHER SERVICE NORTH PLATTE NE
600 AM CDT SAT OCT 21 2017

NOTE: "FAIR" INDICATES FEW OR NO CLOUDS BELOW 12,000 FEET WITH NO
SIGNIFICANT WEATHER AND/OR OBSTRUCTIONS TO VISIBILITY.

NOTE: STATIONS NOT REPORTING VARIABLES SUCH AS SKY/WEATHER OR
PRESSURE ARE PROVIDED BY RAWS AND APRS NETWORKS AND ARE NOT UNDER
NATIONAL WEATHER SERVICE QUALITY CONTROL.

...OBSERVATIONS IN AND NEAR THE EASTERN PANHANDLE OF NEBRASKA...

CITY           SKY/WX    TMP DP  RH WIND       PRES   REMARKS
PINE RIDGE     LGT RAIN  50  40  68 W10       29.64R
GORDON         CLOUDY    54  36  51 NW22G28   29.61R
CHADRON        CLOUDY    49  26  41 W26G40    29.66R
ALLIANCE       CLOUDY    50  19  29 NW23G35   29.68R
SIDNEY         CLOUDY    48  20  32 NW23G30   29.73R
CRESCENT LAKE    N/A     51  24  34 NW16G29     N/A
$$

...OBSERVATIONS IN NORTHERN NEBRASKA AND FAR SOUTHERN SOUTH DAKOTA...

CITY           SKY/WX    TMP DP  RH WIND       PRES   REMARKS
WINNER         FAIR      59  45  59 NW15      29.49R
VALENTINE      MOCLDY    58  41  53 NW20G28   29.55R
THEDFORD       MOCLDY    55  48  77 NW10G16   29.55R
AINSWORTH      PTCLDY    57  50  78 NW13      29.52R
O`NEILL        CLOUDY    62  60  91 S7        29.49S
ORD            CLOUDY    63  60  90 SW5       29.49R
BROKEN BOW     PTCLDY    60  56  86 S7        29.49R
HALSEY           N/A     55  55  99 CALM        N/A
BUTTE            N/A     58  55  91 S3          N/A
CHAMBERS         N/A     63  60  90 S3          N/A
EWING            N/A     67  61  81 S10G18      N/A
$$

...OBSERVATIONS IN SOUTHWEST NEBRASKA AND FAR NORTHEAST COLORADO...

CITY           SKY/WX    TMP DP  RH WIND       PRES   REMARKS
HOLYOKE        FAIR      54  25  32 NW18G32   29.68R
IMPERIAL       CLOUDY    53  34  48 NW20G29   29.63R
OGALLALA       PTCLDY    57  31  36 NW20G29   29.63R
NORTH PLATTE   PTCLDY    54  52  93 NW10      29.52R
MCCOOK         CLEAR     58  42  55 W18G35    29.53R
LEXINGTON      PTCLDY    64  56  77 S9        29.49R
STAPLETON        N/A     53  51  95 CALM        N/A
GOTHENBURG       N/A     63  52  67 S8          N/A
CALLAWAY         N/A     60  57  89 SW6         N/A
$$

...OBSERVATIONS IN CENTRAL LINCOLN COUNTY AREA...

CITY           SKY/WX    TMP DP  RH WIND       PRES   REMARKS
N.P. AIRPORT   PTCLDY    54  52  93 NW10      29.52R
N.P. DOWNTOWN    N/A     57  48  72 W5          N/A
N.P. SOUTHEAST   N/A     57  49  76 NW3G12      N/A
N.P. HILLCREST   N/A     57  47  70 NW17        N/A
$$

...SOME OBSERVATIONS FROM AROUND THE REGION...

CITY           SKY/WX    TMP DP  RH WIND       PRES   REMARKS
DENVER         CLOUDY    48  27  44 VRB3      29.76R
LIMON          CLOUDY    43  35  73 N13       29.75R
ASPEN          CLOUDY    30  28  92 NE3       29.97R
LARAMIE        CLOUDY    29  18  63 W23       29.86R WCI  15
CASPER         CLOUDY    31  17  56 SW6       29.84R WCI  25
CHEYENNE       CLOUDY    38  17  42 NW22G36   29.84R WCI  27
SCOTTSBLUFF    CLOUDY    49  21  33 W24G33    29.72R
GRAND ISLAND   MOCLDY    67  62  84 S24G38    29.51S
OMAHA          TSTM      65  60  84 S17       29.62S
SIOUX FALLS    CLOUDY    66  60  81 S18G29    29.51S
PIERRE         CLOUDY    57  45  64 NW26G35   29.50R
RAPID CITY     CLOUDY    50  31  48 NW21G31   29.63R
BISMARCK       LGT RAIN  55  40  56 W25G33    29.47R
KANSAS CITY    CLOUDY    66  58  75 S24G36    29.81R
HILL CITY      CLOUDY    66  58  75 S16G28    29.56R
WICHITA        CLOUDY    69  65  86 S24G31    29.74R
DODGE CITY     CLEAR     62  57  83 S21G30    29.63R
OKLAHOMA CITY  CLOUDY    69  65  86 S14       29.82R
DALLAS         MOCLDY    73  68  84 S12       29.87S
AMARILLO       CLEAR     58  57  97 S17       29.76S
$$




USA.gov is the U.S. government's official web portal to all federal, state and local government web resources and services.